Overview Statistics Trail Chart Weather Telemetry Raw packets
 

This is the latest recevied weather packets stored in our database for station/object IZ5RIE-13. If no packets are shown the sender has not sent any weather packets the latest 10 day(s).

<< 10 11 12 13 14 15 16 >>
Time Temp. Humidity Pressure Rain* Wind** Luminosity Snow
1788503483 27.78° C 100% 1020.3 hPa - - - -
1788503452 27.78° C 100% 1020.3 hPa - - - -
1788502551 29.44° C 100% 1020.3 hPa - - - -
1788502231 28.33° C 100% 1020.2 hPa - - - -
1788501331 25° C 100% 1020.2 hPa - - - -
1788501302 25° C 100% 1020.2 hPa - - - -
1788500402 23.89° C 100% 1020 hPa - - - -
1788499812 23.89° C 100% 1019.9 hPa - - - -
1788498912 23.89° C 100% 1019.9 hPa - - - -
1788498011 23.89° C 100% 1019.9 hPa - - - -
1788497111 23.89° C 100% 1019.9 hPa - - - -
1788496211 24.44° C 100% 1019.8 hPa - - - -
1788495311 24.44° C 100% 1019.7 hPa - - - -
1788494411 25° C 100% 1019.6 hPa - - - -
1788493511 25° C 100% 1019.8 hPa - - - -
1788492610 25° C 100% 1019.8 hPa - - - -
1788491710 25° C 100% 1019.9 hPa - - - -
1788490810 25° C 100% 1019.9 hPa - - - -
1788489909 25° C 100% 1019.9 hPa - - - -
1788489009 25° C 100% 1020 hPa - - - -
1788488109 25° C 100% 1020 hPa - - - -
1788487209 25.56° C 100% 1019.9 hPa - - - -
1788486315 25.56° C 100% 1019.8 hPa - - - -
1788485415 25.56° C 100% 1019.9 hPa - - - -
1788484515 25.56° C 100% 1019.9 hPa - - - -

* Rain since midnight (hover to see other rain measurements)
** Current wind speed in m/s (hover to see current wind gust speed)